[[{"header":{"parameterUnit":"m.s-1","parameterCategory":1,"la1":30.2991,"la2":30.254,"lo1":-89.0895,"lo2":-89.0444,"dy":0.0017,"dx":0.0017,"nx":28,"ny":28,"refTime":"2025-04-13T03:00:00:Z","depth":0,"parameterNumber":2,"parameterNumberName":"U-component_of_WINDS"},"data":[0,0,0,0,0,0,0,0,0,0,0,0,0,0,0,0,0,0,0,0,0,0,0,0,0,0,0,0,0,0,0,0,0,0,0,0,0,0,0,0,0,0,0,0,0,0,0,0,0,0,0,0,0,0,0,0,0,0,-0.4821,-0.482,0,-0.4704,-0.4703,-0.4702,-0.4657,-0.4658,-0.4658,-0.4658,-0.4539,-0.4536,-0.4532,0,0,0,0,0,0,0,0,0,0,0,0,0,-0.5007,-0.5004,-0.4821,-0.482,-0.4818,-0.4705,-0.4703,-0.4701,-0.4657,-0.4658,-0.4658,-0.4659,-0.454,-0.4536,-0.4532,0,0,0,0,0,0,0,0,0,0,0,0,0,-0.4912,-0.5003,-0.4822,-0.4783,-0.4778,-0.4705,-0.4703,-0.4701,-0.4657,-0.4658,-0.4658,-0.4659,-0.4542,-0.4537,-0.4532,-0.4489,0,0,-0.4515,-0.4513,0,0,0,0,0,0,0,0,-0.4917,-0.4905,-0.479,-0.4785,-0.478,-0.4696,-0.4725,-0.463,-0.4657,-0.4703,-0.4658,-0.4659,-0.4591,-0.4582,-0.4559,-0.4483,-0.4478,-0.4515,-0.4512,-0.451,-0.4508,0,0,0,0,0,0,0,-0.4924,-0.491,-0.4775,-0.4788,-0.4782,-0.4771,-0.4758,-0.4707,-0.4646,-0.4699,-0.4696,-0.4682,-0.4588,-0.4564,-0.4556,-0.4476,-0.4515,-0.4511,-0.4507,-0.4505,-0.4359,-0.4358,0,0,0,0,0,0,-0.4937,-0.4916,-0.4779,-0.4772,-0.4851,-0.4768,-0.4753,-0.4722,-0.4646,-0.4635,-0.4682,-0.4681,-0.4573,-0.4562,-0.4551,-0.4495,-0.451,-0.4505,-0.4502,-0.436,-0.4359,-0.4358,0,0,0,0,0,0,-0.4941,-0.4925,-0.4784,-0.4843,-0.4824,-0.4764,-0.473,-0.472,-0.4695,-0.4633,-0.4622,-0.4668,-0.4573,-0.4559,-0.4504,-0.4491,-0.4502,-0.4498,-0.4361,-0.436,-0.4359,-0.4384,0,0,0,0,0,0,-0.4947,-0.4927,-0.491,-0.4843,-0.4821,-0.4739,-0.4729,-0.4717,-0.4686,-0.4683,-0.4617,-0.4607,-0.4572,-0.4513,-0.4499,-0.4484,-0.4493,-0.4362,-0.436,-0.4359,-0.4384,-0.4384,-0.4384,0,0,0,0,0,-0.4953,-0.4922,-0.4909,-0.4893,-0.4798,-0.4738,-0.4725,-0.4686,-0.4685,-0.4668,-0.4628,-0.4609,-0.4495,-0.4507,-0.4492,-0.4475,-0.4362,-0.4361,-0.4359,-0.4384,-0.4384,-0.4384,0,0,0,0,0,0,-0.499,-0.4913,-0.4897,-0.4843,-0.4798,-0.4731,-0.4707,-0.4687,-0.4641,-0.464,-0.4593,-0.4579,-0.4528,-0.4496,-0.4512,-0.4429,-0.4427,-0.4422,-0.4452,-0.4451,-0.4451,-0.4459,-0.4489,0,0,0,0,0,-0.4991,-0.4949,-0.4884,-0.4842,-0.482,-0.4768,-0.474,-0.4713,-0.4664,-0.4645,-0.4601,-0.4554,-0.4507,-0.4477,-0.4431,-0.438,-0.4365,-0.436,-0.436,-0.4361,-0.4357,-0.4327,-0.4324,-0.4353,-0.4353,-0.4353,0,0,-0.4994,-0.4947,-0.4923,-0.4848,-0.4809,-0.4766,-0.4752,-0.4707,-0.4674,-0.4638,-0.4584,-0.455,-0.4494,-0.4441,-0.4416,-0.4413,-0.4346,-0.4358,-0.4359,-0.4355,-0.4325,-0.4322,-0.432,-0.4352,-0.4352,-0.4352,0,0,-0.4978,-0.4938,-0.4898,-0.486,-0.4801,-0.4767,-0.4758,-0.4693,-0.467,-0.4615,-0.4586,-0.4547,-0.4468,-0.4429,-0.44,-0.4368,-0.4349,-0.4355,-0.4354,-0.4325,-0.4323,-0.4321,-0.4309,-0.4305,-0.4351,-0.4351,-0.4351,0,-0.4989,-0.4922,-0.4881,-0.4837,-0.4805,-0.477,-0.473,-0.4695,-0.4624,-0.4603,-0.4601,-0.4501,-0.4461,-0.4398,-0.4391,-0.4368,-0.4356,-0.4362,-0.4326,-0.4324,-0.4321,-0.4309,-0.4305,-0.4352,-0.4352,-0.4352,-0.4352,0,-0.4939,-0.4893,-0.4868,-0.4801,-0.4766,-0.4725,-0.4677,-0.4647,-0.4624,-0.4589,-0.4534,-0.4485,-0.4428,-0.4411,-0.4388,-0.4345,-0.4345,-0.4336,-0.4332,-0.432,-0.4308,-0.4303,-0.4354,-0.4354,-0.4353,-0.4353,0,0,-0.4941,-0.4851,-0.4843,-0.4811,-0.4744,-0.4708,-0.4665,-0.4609,-0.4584,-0.4537,-0.45,-0.4434,-0.4424,-0.439,-0.4363,-0.4338,-0.4316,-0.4331,-0.4329,-0.4329,-0.4264,-0.4272,-0.4267,-0.4303,-0.4302,-0.4301,-0.4269,0,-0.4915,-0.4836,-0.4797,-0.4735,-0.4692,-0.4658,-0.4621,-0.4576,-0.4543,-0.4502,-0.4465,-0.4419,-0.441,-0.439,-0.4364,-0.4324,-0.4302,-0.4326,-0.4267,-0.4265,-0.4281,-0.4261,-0.4268,-0.4241,-0.4264,-0.4263,-0.4263,0,-0.4874,-0.4826,-0.476,-0.4697,-0.4678,-0.4645,-0.459,-0.4552,-0.45,-0.4478,-0.444,-0.4413,-0.4366,-0.4367,-0.4302,-0.432,-0.4293,-0.427,-0.4268,-0.4261,-0.4263,-0.4252,-0.4231,-0.4227,-0.4255,-0.4256,-0.4256,0,-0.4881,-0.4801,-0.475,-0.4725,-0.4651,-0.4629,-0.4597,-0.4546,-0.4514,-0.4467,-0.4446,-0.4394,-0.4366,-0.4326,-0.4286,-0.4291,-0.4225,-0.4223,-0.4205,-0.4206,-0.4192,-0.4193,-0.4165,-0.4176,-0.4176,-0.4176,-0.4177,0,-0.4856,-0.4816,-0.4753,-0.4722,-0.4677,-0.4633,-0.4589,-0.4555,-0.451,-0.4472,-0.444,-0.4405,-0.4354,-0.4313,-0.4281,-0.4232,-0.4219,-0.42,-0.4192,-0.4202,-0.4205,-0.4184,-0.4184,-0.4175,-0.4176,-0.4176,-0.4176,0,-0.4857,-0.4813,-0.4755,-0.469,-0.4673,-0.4642,-0.4586,-0.4555,-0.4521,-0.4473,-0.4459,-0.4405,-0.4354,-0.431,-0.4244,-0.4223,-0.4172,-0.4162,-0.4189,-0.4185,-0.4169,-0.4171,-0.4127,-0.4118,-0.4136,-0.4136,-0.4136,0,-0.4843,-0.4812,-0.4743,-0.4715,-0.4684,-0.4639,-0.4607,-0.4563,-0.453,-0.4469,-0.4445,-0.4392,-0.4348,-0.4269,-0.4223,-0.4172,-0.4161,-0.4149,-0.4153,-0.4165,-0.416,-0.4162,-0.4159,-0.4149,-0.4149,-0.4149,-0.4149,0,-0.4823,-0.4803,-0.4758,-0.4705,-0.4667,-0.4623,-0.4579,-0.4558,-0.4505,-0.4471,-0.4419,-0.4384,-0.4316,-0.4264,-0.4208,-0.4175,-0.4153,-0.4148,-0.4141,-0.4151,-0.4168,-0.4158,-0.4188,-0.4149,-0.4149,-0.4149,-0.4149,-0.4149,-0.4816,-0.4786,-0.4733,-0.4684,-0.4645,-0.4604,-0.4571,-0.4533,-0.4488,-0.4429,-0.4406,-0.4353,-0.4302,-0.4224,-0.4191,-0.4149,-0.4146,-0.4136,-0.4133,-0.4131,-0.4133,-0.4175,-0.4139,-0.4139,-0.4139,-0.4139,-0.4139,0,-0.4794,-0.4758,-0.4713,-0.4651,-0.4612,-0.4595,-0.4545,-0.4513,-0.4467,-0.4421,-0.4377,-0.4317,-0.4267,-0.4218,-0.4164,-0.414,-0.4128,-0.4127,-0.4128,-0.4121,-0.4139,-0.415,-0.4137,-0.4137,-0.4137,-0.4137,-0.4137,-0.4137,-0.4778,-0.4727,-0.47,-0.463,-0.4594,-0.4541,-0.4514,-0.4476,-0.4439,-0.4373,-0.4331,-0.4299,-0.4252,-0.4195,-0.4147,-0.4134,-0.4116,-0.4117,-0.4102,-0.4119,-0.412,-0.4121,-0.4131,-0.4114,-0.4114,-0.4087,-0.4086,-0.4086]},{"header":{"parameterUnit":"m.s-1","parameterCategory":1,"la1":30.2991,"la2":30.254,"lo1":-89.0895,"lo2":-89.0444,"dy":0.0017,"dx":0.0017,"nx":28,"ny":28,"refTime":"2025-04-13T03:00:00:Z","depth":0,"parameterNumber":3,"parameterNumberName":"V-component_of_WINDS"},"data":[0,0,0,0,0,0,0,0,0,0,0,0,0,0,0,0,0,0,0,0,0,0,0,0,0,0,0,0,0,0,0,0,0,0,0,0,0,0,0,0,0,0,0,0,0,0,0,0,0,0,0,0,0,0,0,0,0,0,4.4444,4.4444,0,4.4421,4.4421,4.4421,4.4347,4.4346,4.4344,4.4342,4.4321,4.4322,4.4323,0,0,0,0,0,0,0,0,0,0,0,0,0,4.4426,4.4427,4.4444,4.4444,4.4443,4.4421,4.4421,4.442,4.4348,4.4346,4.4344,4.4342,4.4321,4.4322,4.4323,0,0,0,0,0,0,0,0,0,0,0,0,0,4.4422,4.4427,4.4444,4.4404,4.44,4.4421,4.4421,4.442,4.4348,4.4345,4.4343,4.4341,4.432,4.4322,4.4323,4.4381,0,0,4.4327,4.4328,0,0,0,0,0,0,0,0,4.4422,4.4422,4.441,4.4407,4.4403,4.4384,4.4406,4.4407,4.4349,4.4368,4.4342,4.434,4.4344,4.4343,4.4345,4.438,4.4379,4.4328,4.4328,4.4329,4.4329,0,0,0,0,0,0,0,4.4422,4.4423,4.4435,4.441,4.4406,4.4388,4.4385,4.4406,4.437,4.4366,4.4361,4.4359,4.4342,4.4343,4.4344,4.4379,4.4327,4.4329,4.433,4.433,4.446,4.4462,0,0,0,0,0,0,4.4428,4.4424,4.4436,4.4434,4.4406,4.439,4.4387,4.4393,4.437,4.4364,4.4361,4.4356,4.4342,4.4342,4.4343,4.4408,4.4329,4.433,4.4331,4.4457,4.446,4.4463,0,0,0,0,0,0,4.4428,4.443,4.4436,4.4427,4.4427,4.4393,4.4401,4.4394,4.4395,4.4366,4.4359,4.4369,4.434,4.4341,4.4372,4.4406,4.4331,4.4332,4.4454,4.4458,4.4462,4.454,0,0,0,0,0,0,4.4428,4.443,4.4451,4.4428,4.4428,4.4466,4.4403,4.4395,4.4398,4.439,4.4372,4.4367,4.4338,4.437,4.4373,4.4407,4.4333,4.4451,4.4456,4.4461,4.4534,4.4546,4.4556,0,0,0,0,0,4.4427,4.4475,4.4453,4.4455,4.4453,4.4468,4.4467,4.4434,4.4401,4.4422,4.4403,4.4367,4.4402,4.4374,4.4377,4.4411,4.4449,4.4455,4.446,4.4529,4.4544,4.4556,0,0,0,0,0,0,4.4504,4.4471,4.4446,4.4488,4.4481,4.4455,4.4481,4.445,4.4453,4.4446,4.4404,4.4401,4.4438,4.4428,4.4397,4.4466,4.4419,4.4426,4.4471,4.4485,4.4495,4.4497,4.4335,0,0,0,0,0,4.4525,4.4539,4.451,4.455,4.4548,4.4515,4.452,4.4495,4.4486,4.4483,4.4466,4.446,4.4469,4.4477,4.4484,4.4533,4.4527,4.4558,4.4569,4.4579,4.4585,4.4609,4.4622,4.4482,4.4482,4.4482,0,0,4.457,4.4554,4.4566,4.4565,4.4556,4.4572,4.4513,4.4532,4.4543,4.4486,4.4514,4.4502,4.4492,4.4532,4.4549,4.4525,4.4622,4.4586,4.4594,4.4594,4.4617,4.463,4.4642,4.4486,4.4485,4.4485,0,0,4.466,4.4649,4.468,4.4673,4.4661,4.4639,4.4647,4.4626,4.4615,4.4642,4.46,4.4613,4.463,4.4625,4.4624,4.4712,4.4679,4.4716,4.4773,4.4798,4.4809,4.4818,4.4849,4.486,4.4722,4.4722,4.4722,0,4.4717,4.4738,4.4701,4.4722,4.4723,4.4671,4.4702,4.4698,4.4689,4.4691,4.4664,4.4684,4.4674,4.4712,4.4733,4.4735,4.4743,4.4717,4.481,4.4819,4.4827,4.4856,4.4868,4.4726,4.4726,4.4726,4.4725,0,4.4809,4.4824,4.4851,4.4843,4.4847,4.4873,4.484,4.4849,4.4823,4.4805,4.4833,4.4819,4.4822,4.483,4.4805,4.4864,4.4849,4.4817,4.4769,4.4846,4.4872,4.4883,4.4733,4.4731,4.473,4.4729,0,0,4.4945,4.4915,4.4926,4.4921,4.4904,4.4916,4.494,4.4942,4.495,4.4947,4.4966,4.4982,4.4951,4.4951,4.4926,4.4947,4.5017,4.4912,4.4911,4.4931,4.508,4.5104,4.5117,4.4995,4.4997,4.4999,4.5081,0,4.5029,4.5067,4.5035,4.508,4.5093,4.5045,4.5066,4.5058,4.5042,4.5051,4.5033,4.5044,4.5004,4.5003,4.5023,4.5004,4.5046,4.4998,4.5013,4.5014,4.5015,4.5131,4.5156,4.5235,4.5091,4.5093,4.5094,0,4.5131,4.5131,4.5178,4.5157,4.5161,4.5181,4.518,4.519,4.518,4.5167,4.5167,4.5135,4.5158,4.5112,4.5143,4.5111,4.5115,4.5107,4.511,4.5109,4.5058,4.5133,4.5259,4.527,4.511,4.5109,4.5107,0,4.5225,4.5236,4.5265,4.5263,4.524,4.5255,4.5246,4.5234,4.5237,4.5237,4.5239,4.5242,4.5244,4.5247,4.5218,4.5187,4.5252,4.5204,4.5242,4.5242,4.5257,4.5256,4.5384,4.5261,4.5261,4.5261,4.5261,0,4.5321,4.5352,4.5307,4.5325,4.5357,4.5319,4.5353,4.5339,4.5329,4.5343,4.5302,4.5317,4.5277,4.5288,4.5266,4.5294,4.5296,4.5285,4.5279,4.5288,4.529,4.529,4.5283,4.5264,4.5263,4.5263,4.5262,0,4.5431,4.5402,4.543,4.5406,4.5401,4.5426,4.5405,4.5421,4.5402,4.5421,4.5423,4.5393,4.5404,4.5375,4.5381,4.5366,4.5407,4.5393,4.541,4.5405,4.5444,4.5441,4.5576,4.5592,4.546,4.5462,4.5463,0,4.5494,4.5515,4.5494,4.55,4.5493,4.5504,4.5507,4.5471,4.5476,4.5467,4.5484,4.5491,4.5494,4.5514,4.5493,4.5498,4.5482,4.5529,4.5483,4.5492,4.5482,4.5481,4.5482,4.5539,4.5541,4.5542,4.5543,0,4.5608,4.5593,4.5598,4.5599,4.5603,4.5603,4.5599,4.5607,4.5568,4.5576,4.5586,4.5589,4.5595,4.5603,4.5603,4.5594,4.5563,4.5558,4.5567,4.5576,4.5585,4.558,4.5436,4.5555,4.5554,4.5553,4.5552,4.5552,4.5695,4.5712,4.5699,4.5707,4.57,4.5697,4.5711,4.5693,4.57,4.5702,4.568,4.5695,4.5685,4.5681,4.5676,4.5687,4.5666,4.5679,4.5682,4.5685,4.5691,4.5585,4.5688,4.5687,4.5687,4.5686,4.5686,0,4.5807,4.5796,4.5803,4.5799,4.5805,4.5774,4.5768,4.5775,4.5788,4.5781,4.5785,4.5797,4.5804,4.5784,4.5788,4.5801,4.5786,4.5803,4.5801,4.58,4.5711,4.5702,4.5814,4.5814,4.5814,4.5814,4.5814,4.5814,4.5865,4.5892,4.5875,4.5898,4.5887,4.59,4.5899,4.5897,4.5891,4.5905,4.5911,4.5897,4.5885,4.5888,4.5893,4.5887,4.589,4.5912,4.5901,4.5818,4.5806,4.5794,4.5786,4.5913,4.5913,4.5988,4.5989,4.599]}]]